993  
ASUS41 KOKX 241105  
RWROKX  
 
REGIONAL WEATHER ROUNDUP  
NATIONAL WEATHER SERVICE NEW YORK NY  
600 AM EST SAT FEB 24 2018  
 
NOTE: "FAIR" INDICATES FEW OR NO CLOUDS BELOW 12,000 FEET WITH NO  
SIGNIFICANT WEATHER AND/OR S TO VISIBILITY
.  
 
NYZ071-072-176-178-NJZ106-104-241200-  
NEW YORK CITY METRO AREA  
 
CITY SKY/WX TMP DP RH WIND PRES REMARKS
 
CENTRAL PARK FAIR 44 41 89 W6 30.18R  
BRONX BOT GARD N/A 43 39 87 SW14 30.16F  
BRONX LEHMAN C N/A 45 41 87 W7 N/A  
LAGUARDIA ARPT FAIR 46 41 82 W8 30.16R  
QUEENS COLLEGE N/A 43 41 93 W9 N/A  
KENNEDY INTL FAIR 42 42 100 W9 30.17R  
BREEZY POINT N/A 41 N/A N/A W5 N/A  
BROOKLYN COLL N/A 45 41 87 W7 N/A  
STATEN ISLAND N/A 43 41 93 W6 N/A  
NEWARK/LIBERTY MOCLDY 42 41 96 W6 30.17R  
TETERBORO FAIR 41 39 93 SW3 30.16R  

 
 
NYZ177-179-078>081-241200-  
LONG ISLAND NEW YORK  
 
CITY SKY/WX TMP DP RH WIND PRES REMARKS
 
JONES BEACH N/A 41 N/A N/A W13 N/A  
WANTAGH N/A 43 41 93 W6 N/A  
HEMPSTEAD N/A 43 43 100 W1 30.18S  
MATINECOCK PT N/A 43 N/A N/A SW12 N/A  
FARMINGDALE FAIR 42 41 96 W8 30.15R  
MACARTHUR/ISP FAIR 42 41 96 W10 30.13R FOG  
STONY BROOK U N/A 43 41 93 W2 N/A  
SHIRLEY FAIR 41 41 100 W8 30.14R FOG  
MT SINAI HARB N/A 43 N/A N/A W5G10 N/A  
WESTHAMPTON FOG 36 36 100 SW7 30.15R VSB 1/2 WCI 30  
EAST HAMPTON CLOUDY 39 39 98 W5 30.12R FOG  
SOUTHOLD N/A 41 39 93 W5 N/A  
MONTAUK N/A 42 41 96 W6 30.12R  

 
 
NYZ052-065-067-241200-  
HUDSON VALLEY  
 
CITY SKY/WX TMP DP RH WIND PRES REMARKS
 
WHITE PLAINS FAIR 40 39 97 W6 30.13R  
LARCHMONT HARB N/A 41 N/A N/A SW9 N/A  
CROTON ON HUDS N/A 37 N/A N/A MISG N/A  
SOMERS N/A 39 39 100 SW3 N/A  
BREWSTER N/A 34 34 100 CALM N/A  
NEWBURGH CLEAR 41 41 100 W9 30.14S  
MONTGOMERY FAIR 38 36 92 SW6 30.14R FOG WCI 33  
OTISVILLE N/A 41 39 93 W3 N/A  
WARWICK N/A 41 41 100 W5 N/A  
SUFFERN N/A 45 41 87 W3 N/A  
POUGHKEEPSIE FAIR 37 35 92 N3 30.14R  
ALBANY CLOUDY 38 35 89 S6 30.16R WCI 33  

 
 
NJZ001-105-106-008-010-013-015-019>022-104-241200-  
NEW JERSEY  
 
CITY SKY/WX TMP DP RH WIND PRES REMARKS
 
NEWARK/LIBERTY MOCLDY 42 41 96 W6 30.17R  
TETERBORO FAIR 41 39 93 SW3 30.16R  
CALDWELL CLOUDY 41 41 100 CALM 30.17R  
SOMERVILLE CLOUDY 40 40 100 CALM 30.16R FOG  
LINDEN PTSUNNY 43 41 92 CALM 30.18R  
PERTH AMBOY N/A 43 N/A N/A W9 N/A  
SUSSEX CLOUDY 40 40 100 CALM 30.17R FOG  
ANDOVER N/A 40 40 100 CALM 30.17R  
TRENTON CLOUDY 44 43 96 W3 30.18R FOG  
MILLVILLE FOG 46 45 96 CALM 30.18R VSB 1/4  
ATLANTIC CITY CLOUDY 47 47 100 W7 30.18R FOG  
WRIGHTSTOWN NOT AVBL  
TOMS RIVER CLOUDY 44 44 100 W7 30.18S FOG  
BELMAR CLOUDY 44 43 96 W8 30.18F  

 
 
PAZ047>061-062-071-241200-  
EASTERN PENNSYLVANIA  
 
CITY SKY/WX TMP DP RH WIND PRES REMARKS
 
PHILADELPHIA CLOUDY 44 43 96 NW3 30.20R FOG  
ALLENTOWN CLOUDY 42 39 89 W3 30.18R FOG  
SCRANTON FOG 40 40 100 SW3 30.18R VSB 1/2  

 
 
CTZ002-004>006-009-010-012-RIZ004-006-007-MAZ004-011-015-241200-  
SOUTHERN NEW ENGLAND  
 
IN CT  
 
CITY SKY/WX TMP DP RH WIND PRES REMARKS
 
BRADLEY INTL MOCLDY 37 36 96 SW3 30.11R  
HARTFORD FOG 37 36 96 CALM 30.12R VSB 1  
DANBURY FAIR 37 36 96 CALM 30.12S FOG  
WTRBURY/OXFORD CLOUDY 39 39 100 NW5 30.11R  
NORWALK HARBOR N/A 39 N/A N/A SW6 N/A WCI 35  
BRIDGEPORT FAIR 39 37 92 SW6 30.13R WCI 35  
MERIDEN FAIR 35 35 100 CALM 30.12R FOG  
NEW HAVEN MOCLDY 38 37 97 W3 30.12R FOG  
CHESTER FAIR 37 37 100 W3 30.11R FOG  
GROTON CLOUDY 41 39 93 SW5 30.11R FOG  
WILLIMANTIC FAIR 39 37 92 S3 30.10S  
 
IN RI  
 
CITY SKY/WX TMP DP RH WIND PRES REMARKS
 
PROVIDENCE FAIR 40 39 97 W6 30.08S  
BLOCK ISLAND MOCLDY 39 39 100 W14 30.12R FOG WCI 31  
WESTERLY CLOUDY 41 41 100 SW5 30.11R FOG  
 
IN MA  
 
CITY SKY/WX TMP DP RH WIND PRES REMARKS
 
BOSTON FAIR 44 40 85 W14 30.04R  
WORCESTER FAIR 39 37 92 W14 30.02S WCI 31  
WESTFIELD CLOUDY 45 40 82 NW6 30.10R  
PROVINCETOWN FAIR 40 39 97 W12 30.05R WCI 33  
NANTUCKET FOG 39 39 100 W16G25 30.09R VSB 3/4 WCI 30  

 
 
ANZ330-335-338-340-345-350-353-355-241200-  
COASTAL MARINE OBSERVATIONS  
 
 
STATION/POSITION TIME SKY/WX TEMP WIND PRES VSBY WAVE
 
AIR SEA DIR/SP/G HT/PER  
(UTC) (F) (DEG/KT/KT) (MB) (MI) (FT/S)  
NY HARB ENTRANCE 1050 42 39 270/ 8/ 10 1021.3 3/ 6  
20 S FIRE ISLAND 1050 44 42 270/ 12/ 14 1021.3 3/ 8  
23 SSW MONTAUK P 1050 41 42 250/ 17/ 21 1020.1 4/ 4  
15 E BARNEGAT LI 1030 42 N/A 3/ 9  
HUDSON CANYON 1050 45 46 270/ 16/ 19 1021.3 4/ 5  
KINGS POINT 1030 43 38 300/ 6/ 8 1022.2  
EXECUTION ROCKS NOT AVBL  
WESTERN LI SOUND NOT AVBL  
CENTRAL LI SOUND 1045 39 250/ 12/ 14 N/A 1  
ROBBINS REEF 1030 44 260/ 10/ 13 1021.9  

 
 
>>>>>>>>>>>>>>>>>>>>>>>>>>>> KEY <<<<<<<<<<<<<<<<<<<<<<<<<<<  
> <  
> SKY/WX - SKY CONDITION/PRESENT WEATHER <  
> TMP - TEMPERATURE IN FAHRENHEIT <  
> DP - DEW POINT IN FAHRENHEIT <  
> RH - RELATIVE HUMIDITY IN PERCENT <  
> WIND - DIRECTION (FROM) AND SPEED IN MPH <  
> PRES - MEAN SEA LEVEL PRESSURE (INCHES OF HG) <  
> WCI - WIND CHILL INDEX <  
> VSB - VISIBILITY IN MILES <  
> HX - HEAT INDEX <  
> TC - TEMPERATURE IN CELSIUS <  
> VRB - VARIBALE WIND DIRECTION <  
> <  
>>>>>>>>>>>>>>>>>>>>>>>>>>>> KEY <<<<<<<<<<<<<<<<<<<<<<<<<<<  
 
 
CLICK HERE TO GO TO PREVIOUS BULLETINS.

The Nexlab NY Page
The Nexlab NJ Page
The Nexlab CT Page Main Text Page